Regional Weather Roundup
Issued by NWS

Home | Current Version | Previous Version | Text Only | Print | Product List | Glossary On
Versions: 1 2 3 4 5 6 7 8 9 10 11 12 13 14 15 16 17 18 19 20 21 22 23 24 25 26 27 28 29 30 31 32 33 34 35 36 37 38 39 40 41 42 43 44 45 46 47 48 49 50
000
ASUS45 KABQ 210510
RWRNM
NEW MEXICO REGIONAL WEATHER ROUNDUP
NATIONAL WEATHER SERVICE ALBUQUERQUE NM
1000 PM MST MON FEB 20 2017

NOTE: "FAIR" MEANS FEW OR NO CLOUDS BELOW 12,000 FEET AGL WITH NO
       SIGNIFICANT WEATHER OR OBSTRUCTIONS TO VISION.

      THIS PRODUCT IS RELEASED AS TWO VERSIONS.  ONE VERSION NEAR
      THE TOP OF THE HOUR CONTAINING PRELIMINARY DATA FROM ALBUQUERQUE
      AND OTHER STATIONS.  A FINAL VERSION WITH ADDITIONAL DATA IS
      ISSUED ABOUT 10 MINUTES AFTER THE HOUR.

NMZ501-503-504-510>518-210600-
NORTHWEST PLATEAU/NORTHCENTRAL MOUNTAINS

CITY           SKY/WX    TMP DP  RH WIND       PRES   REMARKS
FARMINGTON     FAIR      40  31  70 NE6       30.31R
LOS ALAMOS     MOCLDY    41  22  46 CALM      30.31S
SANTA FE       FAIR      36  23  59 N10       30.27R WCI  28
TAOS             N/A     30  18  59 SE3       30.31R
ANGEL FIRE     FAIR      35  21  58 SE7       30.31R WCI  29

$$
NMZ402-403-502-505>509-210600-
WESTCENTRAL MOUNTAINS/SOUTHWEST MOUNTAINS

CITY           SKY/WX    TMP DP  RH WIND       PRES   REMARKS
GALLUP         FAIR      32  29  88 CALM      30.37R
GRANTS         FAIR      32  27  81 N6        30.37R WCI  26
SILVER CITY    FAIR      38  35  85 NW8       30.32S WCI  33

$$
NMZ407-409-411-412-210600-
SOUTHERN DESERTS

CITY           SKY/WX    TMP DP  RH WIND       PRES   REMARKS
DEMING         FAIR      49  36  61 W10       30.29R
LAS CRUCES     FAIR      51  35  53 W9        30.28R
HOLLOMAN AFB   FAIR      48  26  41 N6        30.28R
ALAMOGORDO     FAIR      48  23  37 N7        30.25R
T OR C         FAIR      50  33  52 W6        30.26R

$$
NMZ519>523-210600-
CENTRAL VALLEYS/CENTRAL HIGHLANDS

CITY           SKY/WX    TMP DP  RH WIND       PRES   REMARKS
ALBUQUERQUE    FAIR      50  29  44 NW3       30.29R
DOUBLE EAGLE   CLEAR     41  28  60 W9        30.30R
MORIARTY ARPT  FAIR      40  27  59 S6        30.29R
CLINES CORNERS FAIR      41  26  55 NW18      30.28R
BELEN          FAIR      43  29  57 NW9       30.29R
SOCORRO        FAIR      44  29  55 W3        30.27R

$$
NMZ524>526-539-540-210600-
SOUTHCENTRAL MOUNTAINS

CITY           SKY/WX    TMP DP  RH WIND       PRES   REMARKS
RUIDOSO        FAIR      41  18  38 CALM      30.30S

$$
NMZ527>531-210600-
NORTHEAST HIGHLANDS/NORTHEAST PLAINS

CITY           SKY/WX    TMP DP  RH WIND       PRES   REMARKS
LAS VEGAS      FAIR      38  15  39 NW5       30.22S WCI  34
RATON          NOT AVBL
CLAYTON        FAIR      43  16  33 W10       30.13S

$$
NMZ532>537-210600-
EASTCENTRAL PLAINS

CITY           SKY/WX    TMP DP  RH WIND       PRES   REMARKS
TUCUMCARI      FAIR      44  17  33 CALM      30.12R
CANNON AFB     FAIR      38  23  55 NE7       30.15R WCI  32
CLOVIS AIRPORT FAIR      39  25  56 N5        30.14S

$$
NMZ028-029-538-210600-
SOUTHEAST PLAINS

CITY           SKY/WX    TMP DP  RH WIND       PRES   REMARKS
ROSWELL        FAIR      55  24  30 W12         N/A
ARTESIA        FAIR      48  27  43 W13       30.16S
CARLSBAD       FAIR      55  28  35 W12       30.14S
HOBBS          FAIR      39  19  45 W7        30.16R WCI  34


$$



USA.gov is the U.S. government's official web portal to all federal, state and local government web resources and services.